| time (UTC) | temp F | wind direction | speed knots | gust knots | rain 1hr in | rain 24hr in | rain mn in | humidity % | barometer mb |
| 20260507092703 | 56 | 201 | 1.7 | 5.2 | 0.00 | 0.00 | 0.00 | 63 | 1016.6 |
| 20260507091803 | 56 | 201 | 0.9 | 4.3 | 0.00 | 0.00 | 0.00 | 62 | 1016.6 |
| 20260507091117 | 56 | 184 | 1.7 | 5.2 | 0.00 | 0.00 | 0.00 | 65 | 1016.6 |
| 20260507090004 | 55 | 207 | 0.9 | 5.2 | 0.00 | 0.00 | 0.00 | 67 | 1016.5 |
| 20260507085403 | 55 | 212 | 0.9 | 4.3 | 0.00 | 0.00 | 0.00 | 68 | 1016.6 |
| 20260507084503 | 55 | 185 | 0.9 | 5.2 | 0.00 | 0.00 | 0.00 | 68 | 1016.5 |
| 20260507083603 | 55 | 164 | 0.9 | 5.2 | 0.00 | 0.00 | 0.00 | 69 | 1016.5 |
| 20260507082703 | 53 | 218 | 0.9 | 2.6 | 0.00 | 0.00 | 0.00 | 70 | 1016.5 |
| 20260507081803 | 54 | 212 | 0.9 | 3.5 | 0.00 | 0.00 | 0.00 | 70 | 1016.5 |
| 20260507081117 | 53 | 245 | 0.9 | 2.6 | 0.00 | 0.00 | 0.00 | 70 | 1016.4 |
| 20260507080003 | 53 | 191 | 0.9 | 4.3 | 0.00 | 0.00 | 0.00 | 71 | 1016.3 |
| 20260507075403 | 53 | 149 | 1.7 | 4.3 | 0.00 | 0.00 | 0.00 | 71 | 1016.2 |
| 20260507074503 | 52 | 173 | 0.9 | 3.5 | 0.00 | 0.00 | 0.00 | 73 | 1016.2 |
| 20260507073603 | 52 | 201 | 0.9 | 3.5 | 0.00 | 0.00 | 0.00 | 74 | 1016.1 |
| 20260507072703 | 52 | 0 | 0.0 | 1.7 | 0.00 | 0.00 | 0.00 | 75 | 1016.1 |
| 20260507071803 | 50 | 259 | 0.9 | 3.5 | 0.00 | 0.00 | 0.00 | 75 | 1016.2 |
| 20260507070903 | 50 | 250 | 0.9 | 2.6 | 0.00 | 0.00 | 0.00 | 78 | 1016.1 |
| 20260507070216 | 50 | 0 | 0.0 | 4.3 | 0.00 | 0.00 | 0.00 | 78 | 1016.1 |
| 20260507065616 | 51 | 173 | 0.9 | 4.3 | 0.00 | 0.00 | 0.00 | 78 | 1016.0 |
| 20260507064503 | 49 | 0 | 0.0 | 2.6 | 0.00 | 0.00 | 0.00 | 80 | 1016.0 |
| 20260507063603 | 48 | 0 | 0.0 | 2.6 | 0.00 | 0.00 | 0.00 | 81 | 1016.0 |
| 20260507062703 | 48 | 0 | 0.0 | 1.7 | 0.00 | 0.00 | 0.00 | 82 | 1015.9 |
| 20260507061803 | 47 | 237 | 0.9 | 3.5 | 0.00 | 0.00 | 0.00 | 82 | 1015.8 |
| 20260507060903 | 47 | 246 | 0.9 | 4.3 | 0.00 | 0.00 | 0.00 | 82 | 1015.7 |
| 20260507060003 | 47 | 0 | 0.0 | 0.0 | 0.00 | 0.00 | 0.00 | 82 | 1015.6 |
| 20260507055403 | 46 | 0 | 0.0 | 0.0 | 0.00 | 0.00 | 0.00 | 84 | 1015.6 |
| 20260507054503 | 44 | 0 | 0.0 | 0.0 | 0.00 | 0.00 | 0.00 | 83 | 1015.5 |
| 20260507053603 | 44 | 0 | 0.0 | 0.0 | 0.00 | 0.00 | 0.00 | 83 | 1015.3 |
| 20260507052917 | 44 | 0 | 0.0 | 0.0 | 0.00 | 0.00 | 0.00 | 82 | 1015.3 |
| 20260507051803 | 43 | 0 | 0.0 | 0.0 | 0.00 | 0.00 | 0.00 | 81 | 1015.3 |
| 20260507050903 | 43 | 0 | 0.0 | 0.0 | 0.00 | 0.00 | 0.00 | 81 | 1015.1 |
| 20260507050219 | 43 | 0 | 0.0 | 0.0 | 0.00 | 0.00 | 0.00 | 80 | 1015.1 |
| 20260507045403 | 42 | 0 | 0.0 | 0.0 | 0.00 | 0.00 | 0.00 | 80 | 1015.1 |
| 20260507044503 | 43 | 0 | 0.0 | 0.0 | 0.00 | 0.00 | 0.00 | 80 | 1015.1 |
| 20260507043603 | 44 | 0 | 0.0 | 0.0 | 0.00 | 0.00 | 0.00 | 80 | 1015.0 |
| 20260507042703 | 44 | 0 | 0.0 | 0.0 | 0.00 | 0.00 | 0.00 | 82 | 1014.9 |
| 20260507041803 | 43 | 0 | 0.0 | 0.0 | 0.00 | 0.00 | 0.00 | 82 | 1014.8 |
| 20260507040903 | 42 | 0 | 0.0 | 0.0 | 0.00 | 0.00 | 0.00 | 82 | 1014.7 |
| 20260507040003 | 41 | 0 | 0.0 | 0.0 | 0.00 | 0.00 | 0.00 | 81 | 1014.6 |
| 20260507035618 | 40 | 0 | 0.0 | 0.0 | 0.00 | 0.00 | 0.00 | 81 | 1014.6 |
| 20260507034718 | 40 | 0 | 0.0 | 0.0 | 0.00 | 0.00 | 0.00 | 81 | 1014.6 |
| 20260507033603 | 39 | 0 | 0.0 | 0.0 | 0.00 | 0.00 | 0.00 | 81 | 1014.7 |
| 20260507032703 | 39 | 0 | 0.0 | 0.0 | 0.00 | 0.00 | 0.00 | 80 | 1014.6 |
| 20260507031803 | 39 | 0 | 0.0 | 0.0 | 0.00 | 0.00 | 0.00 | 81 | 1014.6 |
| 20260507030903 | 39 | 0 | 0.0 | 0.0 | 0.00 | 0.00 | 0.00 | 81 | 1014.6 |
| 20260507030003 | 39 | 0 | 0.0 | 0.0 | 0.00 | 0.00 | 0.00 | 80 | 1014.6 |
| 20260507025403 | 39 | 0 | 0.0 | 0.0 | 0.00 | 0.00 | 0.00 | 80 | 1014.5 |
| 20260507024503 | 39 | 0 | 0.0 | 0.0 | 0.00 | 0.00 | 0.00 | 80 | 1014.4 |
| 20260507023603 | 38 | 0 | 0.0 | 0.0 | 0.00 | 0.00 | 0.00 | 80 | 1014.4 |
| 20260507022916 | 39 | 0 | 0.0 | 0.0 | 0.00 | 0.00 | 0.00 | 80 | 1014.3 |
| 20260507021803 | 39 | 0 | 0.0 | 0.0 | 0.00 | 0.00 | 0.00 | 79 | 1014.2 |
| 20260507021119 | 39 | 0 | 0.0 | 0.0 | 0.00 | 0.00 | 0.00 | 79 | 1014.2 |
| 20260507020003 | 40 | 0 | 0.0 | 0.0 | 0.00 | 0.00 | 0.00 | 79 | 1014.3 |
| 20260507015403 | 40 | 0 | 0.0 | 0.0 | 0.00 | 0.00 | 0.00 | 79 | 1014.2 |
| 20260507014717 | 40 | 0 | 0.0 | 0.0 | 0.00 | 0.00 | 0.00 | 78 | 1014.2 |
| 20260507013603 | 40 | 0 | 0.0 | 0.9 | 0.00 | 0.00 | 0.00 | 78 | 1014.0 |
| 20260507012703 | 41 | 0 | 0.0 | 0.9 | 0.00 | 0.00 | 0.00 | 78 | 1014.0 |
| 20260507011803 | 41 | 0 | 0.0 | 0.0 | 0.00 | 0.00 | 0.00 | 78 | 1014.0 |
| 20260507010003 | 42 | 0 | 0.0 | 0.0 | 0.00 | 0.00 | 0.00 | 77 | 1014.0 |
| 20260507005403 | 42 | 0 | 0.0 | 0.0 | 0.00 | 0.00 | 0.00 | 76 | 1014.0 |
| 20260507004503 | 42 | 0 | 0.0 | 0.0 | 0.00 | 0.00 | 0.00 | 76 | 1014.0 |
| 20260507003603 | 43 | 0 | 0.0 | 0.9 | 0.00 | 0.00 | 0.00 | 76 | 1014.0 |
| 20260507002915 | 43 | 0 | 0.0 | 0.9 | 0.00 | 0.00 | 0.00 | 76 | 1014.0 |
| 20260507001803 | 43 | 0 | 0.0 | 0.9 | 0.00 | 0.00 | 0.00 | 76 | 1013.9 |
| 20260507000903 | 43 | 0 | 0.0 | 0.9 | 0.00 | 0.00 | 0.00 | 75 | 1013.9 |
| 20260507000003 | 44 | 0 | 0.0 | 1.7 | 0.00 | 0.00 | 0.00 | 74 | 1013.8 |
| 20260506235617 | 44 | 0 | 0.0 | 1.7 | 0.00 | 0.00 | 0.00 | 73 | 1013.8 |
| 20260506234503 | 44 | 0 | 0.0 | 0.0 | 0.00 | 0.00 | 0.00 | 75 | 1013.7 |
| 20260506233816 | 44 | 0 | 0.0 | 0.0 | 0.00 | 0.00 | 0.00 | 74 | 1013.7 |
| 20260506232703 | 45 | 0 | 0.0 | 0.9 | 0.00 | 0.00 | 0.00 | 74 | 1013.7 |
| 20260506231804 | 44 | 0 | 0.0 | 0.9 | 0.00 | 0.00 | 0.00 | 73 | 1013.6 |
| 20260506230903 | 44 | 0 | 0.0 | 0.9 | 0.00 | 0.00 | 0.00 | 74 | 1013.6 |
| 20260506230217 | 44 | 0 | 0.0 | 0.9 | 0.00 | 0.00 | 0.00 | 74 | 1013.6 |
| 20260506225403 | 44 | 0 | 0.0 | 0.9 | 0.00 | 0.00 | 0.00 | 73 | 1013.5 |
| 20260506224503 | 44 | 0 | 0.0 | 0.9 | 0.00 | 0.00 | 0.00 | 73 | 1013.5 |
| 20260506223603 | 44 | 0 | 0.0 | 0.9 | 0.00 | 0.00 | 0.00 | 74 | 1013.5 |
| 20260506222703 | 44 | 0 | 0.0 | 1.7 | 0.00 | 0.00 | 0.00 | 73 | 1013.4 |
| 20260506221803 | 44 | 0 | 0.0 | 0.9 | 0.00 | 0.00 | 0.00 | 73 | 1013.4 |
| 20260506220903 | 45 | 0 | 0.0 | 0.9 | 0.00 | 0.00 | 0.00 | 73 | 1013.4 |
| 20260506220003 | 45 | 0 | 0.0 | 1.7 | 0.00 | 0.00 | 0.00 | 72 | 1013.4 |
| 20260506215403 | 45 | 0 | 0.0 | 3.5 | 0.00 | 0.00 | 0.00 | 71 | 1013.4 |
| 20260506214503 | 45 | 18 | 0.9 | 3.5 | 0.00 | 0.00 | 0.00 | 71 | 1013.4 |
| 20260506213603 | 46 | 25 | 0.9 | 4.3 | 0.00 | 0.00 | 0.00 | 71 | 1013.3 |
| 20260506212918 | 46 | 28 | 1.7 | 5.2 | 0.00 | 0.00 | 0.00 | 71 | 1013.3 |
| 20260506212018 | 46 | 16 | 1.7 | 4.3 | 0.00 | 0.00 | 0.00 | 70 | 1013.3 |
| 20260506210903 | 46 | 2 | 1.7 | 6.1 | 0.00 | 0.00 | 0.00 | 70 | 1013.2 |
| 20260506210003 | 47 | 352 | 2.6 | 6.1 | 0.00 | 0.00 | 0.00 | 69 | 1013.2 |
| 20260506205403 | 48 | 344 | 2.6 | 7.0 | 0.00 | 0.00 | 0.00 | 69 | 1013.1 |
| 20260506204503 | 48 | 340 | 2.6 | 5.2 | 0.00 | 0.00 | 0.00 | 70 | 1013.1 |
| 20260506203603 | 49 | 340 | 0.9 | 3.5 | 0.00 | 0.00 | 0.00 | 70 | 1013.0 |
| 20260506202703 | 49 | 351 | 1.7 | 5.2 | 0.00 | 0.00 | 0.00 | 71 | 1013.0 |
| 20260506201803 | 50 | 0 | 0.0 | 0.9 | 0.00 | 0.00 | 0.00 | 75 | 1012.9 |
| 20260506200903 | 50 | 0 | 0.0 | 0.0 | 0.00 | 0.00 | 0.00 | 74 | 1012.8 |
| 20260506200003 | 50 | 0 | 0.0 | 0.0 | 0.00 | 0.00 | 0.00 | 73 | 1012.8 |
| 20260506195403 | 50 | 0 | 0.0 | 0.0 | 0.00 | 0.00 | 0.00 | 73 | 1012.8 |
| 20260506194503 | 50 | 0 | 0.0 | 0.0 | 0.00 | 0.00 | 0.00 | 73 | 1012.6 |
| 20260506193603 | 51 | 0 | 0.0 | 1.7 | 0.00 | 0.00 | 0.00 | 73 | 1012.5 |
| 20260506192703 | 51 | 0 | 0.0 | 1.7 | 0.00 | 0.00 | 0.00 | 73 | 1012.6 |
| 20260506192017 | 51 | 0 | 0.0 | 0.9 | 0.00 | 0.00 | 0.00 | 73 | 1012.5 |
| 20260506190903 | 51 | 0 | 0.0 | 1.7 | 0.00 | 0.00 | 0.00 | 72 | 1012.2 |
| 20260506190215 | 51 | 0 | 0.0 | 1.7 | 0.00 | 0.00 | 0.00 | 72 | 1012.1 |
| 20260506185619 | 51 | 103 | 0.9 | 2.6 | 0.00 | 0.00 | 0.00 | 72 | 1012.0 |
| 20260506184503 | 51 | 0 | 0.0 | 2.6 | 0.00 | 0.00 | 0.00 | 70 | 1012.0 |
| 20260506183603 | 52 | 105 | 0.9 | 4.3 | 0.00 | 0.00 | 0.00 | 69 | 1011.9 |
| 20260506182703 | 52 | 0 | 0.0 | 2.6 | 0.00 | 0.00 | 0.00 | 68 | 1011.8 |
| 20260506181803 | 52 | 90 | 0.9 | 2.6 | 0.00 | 0.00 | 0.00 | 68 | 1011.7 |
| 20260506180903 | 53 | 103 | 0.9 | 3.5 | 0.00 | 0.00 | 0.00 | 64 | 1011.5 |
| 20260506180004 | 53 | 125 | 0.9 | 3.5 | 0.00 | 0.00 | 0.00 | 57 | 1011.5 |
| 20260506175403 | 54 | 123 | 0.9 | 3.5 | 0.00 | 0.00 | 0.00 | 54 | 1011.4 |
| 20260506174503 | 54 | 121 | 0.9 | 3.5 | 0.00 | 0.00 | 0.00 | 52 | 1011.4 |
| 20260506173603 | 54 | 129 | 0.9 | 3.5 | 0.00 | 0.00 | 0.00 | 53 | 1011.3 |
| 20260506172703 | 54 | 113 | 0.9 | 4.3 | 0.00 | 0.00 | 0.00 | 55 | 1011.3 |
| 20260506171803 | 54 | 0 | 0.0 | 1.7 | 0.00 | 0.00 | 0.00 | 55 | 1011.2 |
| 20260506170903 | 55 | 98 | 0.9 | 2.6 | 0.00 | 0.00 | 0.00 | 55 | 1011.2 |
| 20260506170003 | 55 | 91 | 0.9 | 2.6 | 0.00 | 0.00 | 0.00 | 54 | 1011.2 |
| 20260506165403 | 55 | 94 | 0.9 | 3.5 | 0.00 | 0.00 | 0.00 | 55 | 1011.2 |
| 20260506164503 | 55 | 105 | 1.7 | 3.5 | 0.00 | 0.00 | 0.00 | 55 | 1011.2 |
| 20260506163817 | 55 | 102 | 0.9 | 4.3 | 0.00 | 0.00 | 0.00 | 55 | 1011.2 |
| 20260506162916 | 55 | 94 | 1.7 | 4.3 | 0.00 | 0.00 | 0.00 | 56 | 1011.2 |
| 20260506161803 | 55 | 94 | 1.7 | 5.2 | 0.00 | 0.00 | 0.00 | 54 | 1011.2 |
| 20260506160903 | 55 | 95 | 0.9 | 4.3 | 0.00 | 0.00 | 0.00 | 55 | 1011.2 |
| 20260506160003 | 55 | 112 | 1.7 | 6.1 | 0.00 | 0.00 | 0.00 | 55 | 1011.2 |
| 20260506155403 | 55 | 110 | 1.7 | 4.3 | 0.00 | 0.00 | 0.00 | 55 | 1011.2 |
| 20260506154503 | 55 | 88 | 1.7 | 6.1 | 0.00 | 0.00 | 0.00 | 56 | 1011.3 |
| 20260506153603 | 55 | 67 | 0.9 | 6.1 | 0.00 | 0.00 | 0.00 | 54 | 1011.2 |
| 20260506152703 | 56 | 88 | 1.7 | 5.2 | 0.00 | 0.00 | 0.00 | 55 | 1011.2 |
| 20260506151803 | 56 | 68 | 2.6 | 7.0 | 0.00 | 0.00 | 0.00 | 54 | 1011.2 |
| 20260506151119 | 56 | 32 | 0.9 | 4.3 | 0.00 | 0.00 | 0.00 | 56 | 1011.2 |
| 20260506150218 | 56 | 344 | 1.7 | 4.3 | 0.00 | 0.00 | 0.00 | 56 | 1011.2 |
| 20260506145403 | 56 | 350 | 0.9 | 2.6 | 0.00 | 0.00 | 0.00 | 55 | 1011.2 |
| 20260506144503 | 56 | 25 | 1.7 | 4.3 | 0.00 | 0.00 | 0.00 | 54 | 1011.2 |
| 20260506143816 | 56 | 46 | 1.7 | 4.3 | 0.00 | 0.00 | 0.00 | 56 | 1011.2 |
| 20260506142703 | 56 | 10 | 1.7 | 6.1 | 0.00 | 0.00 | 0.00 | 56 | 1011.2 |
| 20260506141803 | 56 | 349 | 2.6 | 5.2 | 0.00 | 0.00 | 0.00 | 54 | 1011.2 |
| 20260506140903 | 56 | 342 | 1.7 | 5.2 | 0.00 | 0.00 | 0.00 | 54 | 1011.2 |
| 20260506140003 | 56 | 18 | 1.7 | 5.2 | 0.00 | 0.00 | 0.00 | 56 | 1011.2 |
| 20260506135617 | 57 | 62 | 0.9 | 5.2 | 0.00 | 0.00 | 0.00 | 56 | 1011.2 |
| 20260506134503 | 57 | 42 | 1.7 | 6.1 | 0.00 | 0.00 | 0.00 | 56 | 1011.2 |
| 20260506133603 | 57 | 75 | 1.7 | 5.2 | 0.00 | 0.00 | 0.00 | 57 | 1011.2 |
| 20260506132703 | 57 | 54 | 1.7 | 5.2 | 0.00 | 0.00 | 0.00 | 59 | 1011.3 |
| 20260506131803 | 55 | 80 | 2.6 | 5.2 | 0.00 | 0.00 | 0.00 | 58 | 1011.3 |
| 20260506131118 | 55 | 75 | 1.7 | 5.2 | 0.00 | 0.00 | 0.00 | 58 | 1011.3 |
| 20260506130003 | 55 | 16 | 1.7 | 7.0 | 0.00 | 0.00 | 0.00 | 58 | 1011.3 |
| 20260506125617 | 55 | 24 | 1.7 | 7.0 | 0.00 | 0.00 | 0.00 | 57 | 1011.3 |
| 20260506124503 | 55 | 35 | 1.7 | 6.1 | 0.00 | 0.00 | 0.00 | 57 | 1011.3 |
| 20260506123603 | 55 | 65 | 1.7 | 7.8 | 0.00 | 0.00 | 0.00 | 61 | 1011.3 |
| 20260506122703 | 55 | 340 | 1.7 | 4.3 | 0.00 | 0.00 | 0.00 | 61 | 1011.3 |
| 20260506121803 | 54 | 6 | 2.6 | 7.0 | 0.00 | 0.00 | 0.00 | 62 | 1011.4 |
| 20260506120903 | 55 | 10 | 3.5 | 7.8 | 0.00 | 0.00 | 0.00 | 62 | 1011.5 |
| 20260506120003 | 55 | 353 | 3.5 | 8.7 | 0.00 | 0.00 | 0.00 | 60 | 1011.4 |
| 20260506115403 | 55 | 31 | 1.7 | 9.6 | 0.00 | 0.00 | 0.00 | 63 | 1011.5 |
| 20260506114503 | 54 | 350 | 2.6 | 9.6 | 0.00 | 0.00 | 0.00 | 63 | 1011.4 |
| 20260506113603 | 55 | 347 | 2.6 | 8.7 | 0.00 | 0.00 | 0.00 | 62 | 1011.5 |
| 20260506112703 | 55 | 344 | 2.6 | 7.0 | 0.00 | 0.00 | 0.00 | 63 | 1011.5 |
| 20260506111803 | 54 | 27 | 3.5 | 8.7 | 0.00 | 0.00 | 0.00 | 64 | 1011.6 |
| 20260506110903 | 54 | 360 | 3.5 | 6.1 | 0.00 | 0.00 | 0.00 | 64 | 1011.6 |
| 20260506110003 | 55 | 343 | 2.6 | 7.8 | 0.00 | 0.00 | 0.00 | 60 | 1011.7 |
| 20260506105403 | 55 | 350 | 2.6 | 7.0 | 0.00 | 0.00 | 0.00 | 61 | 1011.7 |
| 20260506104503 | 56 | 66 | 1.7 | 6.1 | 0.00 | 0.00 | 0.00 | 59 | 1011.7 |
| 20260506103603 | 56 | 67 | 3.5 | 7.8 | 0.00 | 0.00 | 0.00 | 58 | 1011.7 |
| 20260506102703 | 56 | 43 | 3.5 | 7.8 | 0.00 | 0.00 | 0.00 | 55 | 1011.6 |
| 20260506101803 | 56 | 80 | 2.6 | 8.7 | 0.00 | 0.00 | 0.00 | 55 | 1011.6 |
| 20260506100903 | 56 | 30 | 2.6 | 8.7 | 0.00 | 0.00 | 0.00 | 57 | 1011.7 |
| 20260506100003 | 55 | 98 | 2.6 | 8.7 | 0.00 | 0.00 | 0.00 | 57 | 1011.7 |
| 20260506095403 | 55 | 83 | 2.6 | 8.7 | 0.00 | 0.00 | 0.00 | 61 | 1011.8 |
| 20260506094503 | 55 | 100 | 3.5 | 7.8 | 0.00 | 0.00 | 0.00 | 59 | 1011.7 |
| 20260506093603 | 54 | 94 | 2.6 | 7.8 | 0.00 | 0.00 | 0.00 | 61 | 1011.8 |